Location: Demmingen
(48.6757°N, 10.4375°E)
Time: 06:27:15
(UTC+00:00)

SL-16 R/B - Pass Details

Date: 15 August 2024
Orbit: 842 x 845 km, 71.0° (Epoch: 16 September)

Event Time Altitude Azimuth Distance (km) Brightness Sun altitude
Exits shadow 23:30:39 33° 269° (W) 1,394 3.2 -27.7°
Maximum altitude 23:32:20 41° 308° (NW) 1,218 3.2 -27.6°
Drops below altitude 10° 23:37:41 10° 18° (NNE) 2,476 5.6 -27.6°
Sets 23:40:18 0° 26° (NNE) 3,415 6.4 -27.6°
